Weather History for K0J4 - August, 2013

Change the Weather History Date:

Tuesday, August 13, 2013

  Actual Average (KCEW) Record (KCEW)
Temperature  
Mean Temperature 82 °F -  
Max Temperature 88 °F 91 °F 98 °F (1951)
Min Temperature 75 °F 69 °F 64 °F (1979)
Cooling Degree Days 16    
Growing Degree Days 32 (Base 50)    
Moisture  
Dew Point 74 °F    
Average Humidity 86    
Maximum Humidity 96    
Minimum Humidity 63    
Precipitation  
Precipitation 0.12 in - - ()
Sea Level Pressure  
Sea Level Pressure 30.01 in    
Wind  
Wind Speed 1 mph (SW)    
Max Wind Speed 6 mph    
Max Gust Speed -    
Visibility 9 miles    
Events Rain , Thunderstorm    
Averages and records for this station are not official NWS values.
T = Trace of Precipitation, MM = Missing Value Source: NWS Daily Summary

Daily Weather History Graph

Daily Weather History Graph

Search for Another Location

Airport or City:

Trip Planner

Search our weather history database for the weather conditions in past years. The results will help you decide how hot, cold, wet, or windy it might be!

Date:

Astronomy

Aug. 13, 2013 Rise Set
Actual Time 6:10 AM CDT 7:29 PM CDT
Civil Twilight 5:44 AM CDT 7:55 PM CDT
Nautical Twilight 5:14 AM CDT 8:25 PM CDT
Astronomical Twilight 4:42 AM CDT 8:56 PM CDT
Moon 12:33 PM CDT (8/13) 11:36 PM CDT (8/13)
Length of Visible Light 14h 10m
Length of Day
13h 19m
Waxing Crescent, 42% of the Moon is Illuminated
Aug 13
Waxing Crescent
Aug 14
First Quarter
Aug 20
Full
Aug 28
Last Quarter
Sep 5
New

Hourly Weather History & Observations

Time (CDT) Temp. Heat Index Dew Point Humidity Pressure Visibility Wind Dir Wind Speed Gust Speed Precip Events Conditions
12:58 AM 75.0 °F - 72.0 °F 90% 30.04 in 10.0 mi Calm Calm - N/A   Clear
1:58 AM 75.0 °F - 72.0 °F 90% 30.04 in 10.0 mi Calm Calm - N/A   Clear
2:58 AM 75.0 °F - 72.0 °F 90% 30.02 in 10.0 mi Calm Calm - N/A   Clear
3:58 AM 75.0 °F - 73.0 °F 94% 30.02 in 10.0 mi Calm Calm - N/A   Clear
4:58 AM 75.0 °F - 73.0 °F 94% 30.01 in 10.0 mi SSW 3.5 mph - N/A   Clear
5:58 AM 75.0 °F - 73.9 °F 96% 30.02 in 10.0 mi Calm Calm - N/A   Partly Cloudy
6:58 AM 75.9 °F - 73.9 °F 94% 30.03 in 8.0 mi Calm Calm - N/A   Clear
7:58 AM 80.1 °F 85.8 °F 77.0 °F 90% 30.04 in 10.0 mi Calm Calm - N/A   Clear
8:58 AM 82.9 °F 90.8 °F 75.9 °F 79% 30.04 in 10.0 mi Variable 5.8 mph - N/A   Clear
9:58 AM 86.0 °F 96.0 °F 75.9 °F 72% 30.03 in 10.0 mi Variable 4.6 mph - N/A   Clear
10:58 AM 88.0 °F 96.5 °F 73.9 °F 63% 30.05 in 10.0 mi Variable 4.6 mph - N/A   Scattered Clouds
11:58 AM 88.0 °F 96.5 °F 73.9 °F 63% 30.03 in 10.0 mi NNW 4.6 mph - N/A   Scattered Clouds
12:58 PM 84.9 °F 93.3 °F 75.0 °F 72% 30.02 in 10.0 mi Calm Calm - N/A   Mostly Cloudy
1:02 PM 84.2 °F 92.3 °F 75.2 °F 74% 30.03 in 1.8 mi Calm Calm - 0.03 in   Haze
1:13 PM 84.2 °F 92.3 °F 75.2 °F 74% 30.02 in 10.0 mi Calm Calm - 0.03 in   Mostly Cloudy
1:23 PM 82.4 °F 89.5 °F 75.2 °F 79% 30.03 in 10.0 mi Calm Calm - 0.03 in Thunderstorm Thunderstorm
1:58 PM 82.0 °F 88.6 °F 75.0 °F 79% 30.01 in 10.0 mi SSW 5.8 mph - 0.05 in Thunderstorm Thunderstorm
2:19 PM 78.8 °F - 75.2 °F 89% 30.03 in 2.0 mi Variable 3.5 mph - 0.03 in Rain , Thunderstorm Thunderstorms and Rain
2:23 PM 78.8 °F - 75.2 °F 89% 30.02 in 1.8 mi Calm Calm - 0.04 in Rain , Thunderstorm Light Thunderstorms and Rain
2:36 PM 78.8 °F - 75.2 °F 89% 30.01 in 2.5 mi Calm Calm - 0.07 in Rain , Thunderstorm Light Thunderstorms and Rain
2:41 PM 78.8 °F - 75.2 °F 89% 30.00 in 4.0 mi SW 4.6 mph - 0.07 in Thunderstorm Overcast
2:58 PM 78.1 °F - 75.0 °F 90% 29.99 in 10.0 mi Calm Calm - 0.07 in Thunderstorm Overcast
3:38 PM 78.8 °F - 75.2 °F 89% 29.99 in 10.0 mi Variable 5.8 mph - N/A   Mostly Cloudy
3:58 PM 78.1 °F - 73.0 °F 84% 29.97 in 10.0 mi Calm Calm - N/A   Partly Cloudy
4:58 PM 77.0 °F - 72.0 °F 84% 29.96 in 10.0 mi Calm Calm - N/A   Mostly Cloudy
5:58 PM 75.9 °F - 72.0 °F 87% 29.98 in 10.0 mi SW 3.5 mph - N/A   Clear
6:58 PM 75.9 °F - 73.0 °F 91% 29.98 in 10.0 mi Calm Calm - N/A   Scattered Clouds
7:58 PM 75.0 °F - 73.0 °F 94% 29.98 in 10.0 mi Calm Calm - N/A   Clear
8:58 PM 75.0 °F - 73.0 °F 94% 29.98 in 10.0 mi SSW 3.5 mph - N/A   Clear
9:58 PM 75.0 °F - 73.0 °F 94% 29.97 in 10.0 mi Calm Calm - N/A   Mostly Cloudy
10:58 PM 75.9 °F - 73.0 °F 91% 29.98 in 10.0 mi Calm Calm - N/A   Scattered Clouds
11:27 PM 75.2 °F - 73.4 °F 94% 29.99 in 9.0 mi SSW 3.5 mph - N/A   Mostly Cloudy
11:58 PM 75.0 °F - 73.0 °F 94% 29.98 in 9.0 mi Calm Calm - N/A   Overcast